Other Public Products
Issued by NWS Grand Forks, ND

Home | Current Version | Previous Version | Text Only | Print | Product List | Glossary Off
Versions: 1 2 3 4 5 6 7 8 9 10 11 12 13 14 15 16 17 18 19 20 21 22 23 24 25 26 27 28 29 30 31 32 33 34 35 36 37 38 39 40 41 42 43 44 45 46 47 48 49 50

000
FPUS83 KFGF 271310
OPUFGF
PRAIRIE TO PINES WEATHER ROUNDUP
NATIONAL WEATHER SERVICE EASTERN NORTH DAKOTA/GRAND FORKS ND
700 AM CST TUE JAN 27 2015

 **SATELLITE DATA USED TO AUGMENT SKY COVER AT AUTOMATED STATIONS**
 *****  WEATHER ACROSS EASTERN NORTH DAKOTA  *****

CITY           SKY/WX    TMP DP  RH WIND       PRES   REMARKS
GRAND FORKS    FOG       26  25  96 S13       30.03F VSB 3/4 WCI  15
GRAND FORKS AF CLOUDY    25  23  93 S8        30.02F WCI  16
GRAND CITY NWS NOT AVBL
BUXTON         NOT AVBL
DEVILS LAKE    CLOUDY    27  25  93 S6        29.94S WCI  20
FARGO          FOG       27  26  96 SE9       30.06S VSB 1/2 WCI  18
WAHPETON ARPT  CLOUDY    28  27  93 SE8       30.09R VSB 3/4 WCI  20
$$

 *****  WEATHER ACROSS CENTRAL AND WESTERN NORTH DAKOTA  *****

CITY           SKY/WX    TMP DP  RH WIND       PRES   REMARKS
JAMESTOWN      PTCLDY    29  28  96 S9        29.97S WCI  20
BISMARCK       PTCLDY    31  29  92 SE7       29.92S WCI  24
MINOT          PTCLDY    29  26  89 SE3       29.84S
MINOT AFB      PTCLDY    26  26 100 SE6       29.84F WCI  19
GARRISON         N/A     28  27  96 S5        29.86S WCI  23
WILLISTON      MOCLDY    29  27  92 SW5       29.83S WCI  24
DICKINSON      PTCLDY    36  29  75 SW7       29.83S
HETTINGER      PTCLDY    27  24  89 CALM      29.89R
$$

 *****  OTHER OBSERVATIONS NORTHEAST NORTH DAKOTA  *****

CITY           SKY/WX    TMP DP  RH WIND       PRES   REMARKS
WALHALLA         N/A     25  25 100 SE3       29.98R
LANGDON        FAIR      28  28 100 S15       29.93S WCI  17
CAVALIER       CLOUDY    23  23 100 S10       30.00S FOG     WCI  12
GRAFTON        NOT AVBL
CANDO          FAIR      27  27 100 S9        29.93F WCI  17
FORT TOTTEN      N/A     29  28  96 S9        29.95  WCI  20
ROLLA          FAIR      27  27 100 S12       29.91S WCI  16
RUGBY          FAIR      32  28  86 S16G22    29.88F WCI  21
 ***** THE ABOVE OBSERVATIONS ARE NON NWS ARE NOT QUALITY
        CONTROLLED AND MAY MIS-REPORT RAIN FOR SNOW...
$$

 *****  OTHER OBSERVATIONS SOUTHEAST NORTH DAKOTA *****

CITY           SKY/WX    TMP DP  RH WIND       PRES   REMARKS
COOPERSTOWN    NOT AVBL
VALLEY CITY    FOG       27  27 100 S7        30.00F VSB 1/2 WCI  19
OAKES          FOG       27  27 100 SE7       30.02S VSB 1/4 WCI  19
GWINNER        CLOUDY    28  28 100 SE7       30.04S VSB 1/2 WCI  21
SHEYENNE NWR     N/A     26  26  98 SE6       29.95  WCI  19
BUFFALO        NOT AVBL
WYNDMERE         N/A     27  28 100 SE6         N/A  WCI  20
 ***** THE ABOVE OBSERVATIONS ARE NON NWS ARE NOT QUALITY
       CONTROLLED AND MAY MIS-REPORT RAIN FOR SNOW...
$$

  *****  WEATHER ACROSS NORTHERN MINNESOTA  *****

CITY           SKY/WX    TMP DP  RH WIND       PRES   REMARKS
FLAG ISLAND    CLOUDY    21  19  93 S10       30.02F FOG     WCI  10
WARROAD        CLOUDY    21  18  86 SE8       30.03F FOG     WCI  12
ROSEAU         CLOUDY    23  18  80 S6        30.03F HAZE    WCI  16
HALLOCK        FOG       25  23  93 S10       30.01S VSB 1   WCI  15
THF RVR FALLS  CLOUDY    25  25 100 S8        30.05S VSB 3/4 WCI  16
HALSTAD          N/A     26  25  95 S9          N/A  WCI  17
FOSSTON        CLOUDY    21  21 100 SE6       30.06R FOG     WCI  14
BAUDETTE       CLOUDY    23  21  92 S8        30.05R WCI  14
WASKISH        CLOUDY    25  25 100 CALM      30.07R
CROOKSTON      FOG       25  25 100 S9        30.06F VSB 1/2 WCI  15
$$
  *****  WEATHER ACROSS CENTRAL AND WEST MINNESOTA  *****

CITY           SKY/WX    TMP DP  RH WIND       PRES   REMARKS
BEMIDJI        CLOUDY    24  24  97 S6        30.06R FOG     WCI  17
PARK RAPIDS    CLOUDY    27  25  92 SE8       30.07R WCI  19
WADENA         CLOUDY    25  25 100 SE5       30.08R WCI  19
DETROIT LAKES  FOG       27  27 100 S9        30.06S VSB 1/2 WCI  17
MOORHEAD       FOG       27  27 100 S7        30.07F VSB 3/4 WCI  19
FERGUS FALLS   FOG       27  27 100 S8        30.10S VSB 3/4 WCI  18
ELBOW LAKE     CLOUDY    26  26  99 SE8       30.07R FOG     WCI  18
MORRIS MN      CLOUDY    28  28 100 SE8       30.08R FOG     WCI  20
STAPLES        CLOUDY    27  25  93 CALM      30.09R
WHEATON        CLOUDY    25  25 100 SE9       30.10R FOG     WCI  15
$$
  *****  WEATHER ELSEWHERE ACROSS MINNESOTA  *****

CITY           SKY/WX    TMP DP  RH WIND       PRES   REMARKS
DULUTH         CLOUDY    25  21  85 CALM      30.08R
INTRNTL FALLS  CLOUDY    22  19  89 SW5       30.07R WCI  16
ELY            CLOUDY    21  21 100 CALM      30.07R
CLOQUET        CLOUDY    25  21  86 CALM      30.09R
BRAINERD       CLOUDY    29  25  85 SE5       30.09R WCI  24
HIBBING        CLOUDY    25  21  85 CALM      30.08R
ALEXANDRIA     CLOUDY    28  26  92 SE6       30.09R WCI  22
SAINT CLOUD    CLOUDY    31  25  78 E3        30.10R
MINNEAPOLIS    CLOUDY    33  25  72 NE5       30.12R
$$

  *****  WEATHER ACROSS SOUTH DAKOTA  *****

CITY           SKY/WX    TMP DP  RH WIND       PRES   REMARKS
SIOUX FALLS    PTCLDY    24  22  91 NE3       30.07R FOG
BROOKINGS      NOT AVBL
WATERTOWN      CLEAR     26  24  92 SE3       30.03S
HURON          CLEAR     27  26  96 SE6       30.03R WCI  20
SISSETON         N/A     29  29 100 S8        30.06R WCI  21
ABERDEEN       PTCLDY    26  23  88 SE5       30.03R WCI  20
MITCHELL       CLEAR     28  27  96 SE6       30.04R WCI  22
PIERRE         PTCLDY    30  28  92 SE8       29.94R WCI  22
MOBRIDGE       CLEAR     31  28  89 SE7       29.91S WCI  24
RAPID CITY     CLEAR     40  25  55 W5        29.94S
$$

  *****  SOME WEATHER IN NEARBY STATES *****

CITY           SKY/WX    TMP DP  RH WIND       PRES   REMARKS
GLASGOW MT     PTCLDY    31  28  89 E6        29.83S
GREAT FALLS MT CLOUDY    49  28  44 S14       29.90F
CHEYENNE WY    CLEAR     43  18  36 W12       30.15F
SCOTTSBLUFF NE   N/A     30  26  85 MISG      30.07S
OMAHA NE       CLEAR     26  24  92 CALM      30.11R
DES MOINES IA  CLEAR     31  28  89 N5        30.10R
DAVENPORT IA   CLOUDY    30  24  78 NE17      30.09R WCI  18
CHICAGO IL     FRZ DRZL  27  24  89 N8        30.05R WCI  19
EAU CLAIRE WI  CLOUDY    27  22  81 CALM      30.11R
LA CROSSE WI   CLOUDY    31  22  69 NE6       30.12R
$$

  *****  SOME NATIONAL WEATHER *****

CITY           SKY/WX    TMP DP  RH WIND       PRES   REMARKS
LA GUARDIA NY  CLOUDY    22  14  71 N18G32    29.67R WCI   7
RALEIGH NC     MOCLDY    34  20  56 VRB5      29.80R
ATLANTA GA     PTCLDY    33  28  81 W7        29.90R
NEW ORLEANS LA PTCLDY    48  40  73 W3        30.09R
OKLAHOMA CITY  CLEAR     44  33  65 N7        30.12R
ALBUQUERQUE NM PTCLDY    35  26  69 N6        30.32S
SALT LAKE CITY PTCLDY    30  28  92 SE3       30.17F FOG
LOS ANGELES CA MOCLDY    57  54  89 NE6       30.13S
BOISE ID       FOG       28  27  93 CALM      30.10S VSB 3/4
SEATTLE WA     CLOUDY    50  46  86 S7        30.00S
$$

*** WEATHER ACROSS MANITOBA...SASKATCHEWAN AND ONTARIO ***
                ***ONTARIO***

CITY           SKY/WX    TMP DP  RH WIND       PRES   REMARKS
GERALDTON      FLURRIES  16  14  93 S5        30.09R WCI   9
THUNDER BAY    FLURRIES  21  19  93 W5        30.13R WCI  15
SIOUX LOOKOUT  FLURRIES  19  18  93 SW5       30.03S WCI  13
TORONTO        LGT SNOW  10   5  79 N10       30.06R WCI  -3
BIG TROUT LK   CLOUDY    18  16  93 SW10      29.87S WCI   6
PICKLE LAKE    CLOUDY    18  16  93 SW7       29.99R WCI   8
DRYDEN         CLOUDY    19  18  93 S7        30.03R WCI  10
KENORA         FOG       19  18  93 S9        30.02R VSB 1/4 WCI   9
$$
                *** MANITOBA***

CITY           SKY/WX    TMP DP  RH WIND       PRES   REMARKS
BRANDON        CLOUDY    23  21  93 E7        29.89F WCI  15
DAUPHIN        CLOUDY    28  27  93 W6        29.85S WCI  22
ISLAND LAKE    FLURRIES  21  21 100 SW8       29.85R WCI  12
PILOT MOUND      N/A     28  28 100 S10         N/A  WCI  19
THE PAS        FOG       18  16  93 N6        29.83S VSB 1/4 WCI   9
THOMPSON       CLOUDY    21  19  93 W3        29.78R
WINNIPEG       FOG       23  21  93 S18       29.99S VSB 3/4 WCI   9
LYNN LAKE      FLURRIES   5   3  92 NW10G17   29.87R WCI -10
CHURCHILL      LGT SNOW   7   5  92 NW36G44   29.70R BLWGSNOWWCI -18
GILLAM         FLURRIES  21  18  86 W12       29.72R WCI   9
$$
                ***SASKATCHEWAN***

CITY           SKY/WX    TMP DP  RH WIND       PRES   REMARKS
ESTEVAN        PTCLDY    25  23  93 E7        29.80F WCI  17
KINDERSLEY     PTCLDY    23  21  93 N7        29.78R WCI  15
LLOYDMINSTER   MOCLDY    34  32  93 SE5       29.78F
PRINCE ALBERT  CLOUDY    28  27  93 CALM      29.81S
REGINA         CLEAR     27  27 100 E9        29.77S WCI  17


USA.gov is the U.S. government's official web portal to all federal, state and local government web resources and services.